DECAYED
Showing default

FLOCK 4S 11, 47462 (Decayed)

Orbit data source: Space-Track

FLOCK 4S 11, 47462 was a payload satellite owned by Planet (US) in LEO that was launched on Sun, 24 Jan 2021 UTC via an FALCON 9 launch vehicle from the Air Force Eastern Test Range (AFETR). Payload-class satellites include a variety of spacecraft equipped with specific instruments for various scientific and technological missions. These include communications satellites like Starlink; space stations such as the ISS; scientific satellites like the Hubble; Earth observation satellites from companies like Planet Labs, Umbra, and HawkEye 360; GPS; miniature CubeSats for education and research; and military/defense satellites.

Loading next visibility...
Identifier
47462, 2021-006BB
Orbit
Decayed
Country
Flag of USUS
Related business
Manufacturer
Planet
Mission
Decayed Commercial Imaging
Bus & Motor
CUBESAT 3U, Unknown motor
Mass
5.7 kg wet, 5.7 kg dry
Launch date (UTC)
2021-01-24 (6 years ago)
Launch vehicle
FALCON 9
Launch site
Air Force Eastern Test Range (AFETR)
Object type
Payload
Rocket body
Debris
Shape & HBR
Box + 2 Pan, 1.0 m
Radar Cross Section
0.108 m², Medium (>0.1 m² and < 1m²)

Expand to show TLE details & history
Last TLE update: 2 years ago

TLE from 2 years ago
0 FLOCK 4S 11
1 47462U 21006BB  25039.15908064  .11335022  24572-5  84247-3 0  9994
2 47462  97.2612 101.3898 0010162 272.1663  87.8474 16.40267002224722
Epoch: 2025-02-08T03:49Z
TLE epoch observation values (Epoch: 2025-02-08T03:49:04.567Z)
Latitude
0.00006°
Longitude
-94.3902°
Altitude
168.105 km
Speed
7.805 km/s
True Right ascension
06h 45m 33s
True Declination
0° 00' 00"
Sunlit
Object was in full shadow at epoch
Visualization orbit readout
Latitude
Unknown
Longitude
Unknown
Altitude
Unknown
Speed
Unknown
Apparent Right ascension
Unknown
Apparent Declination
Unknown
Sunlit
N/A
Visualization observer readout
Local Sidereal Time
07:06:33
Azimuth
Unknown
Elevation
Unknown
Doppler factor
Unknown
Orbital elements
Apogee altitude
168.539 km
Perigee altitude
155.247 km
Semi-major axis
6,540.03 km
Eccentricity
0.00102
Inclination
97.2612°
RAAN
101.3898°
Arg. of periapsis
272.1663°
True anomaly
87.96377°
Mean anomaly
87.8474°
Eccentric anomaly
87.90559°
Mean motion
4.10368 °/min
Orbital period
87.73 mins
BSTAR
0.00084247
Loading maneuver chart data...
Computing Atmospheric mass density...
Loading historical data...
Loading historical data...
Loading historical data...
Loading historical data...
Loading historical data...
Loading historical data...
Loading historical data...

Documentation

Showing up to 5 results
|